Regional Weather Roundup
Issued by NWS

Home | Current Version | Previous Version | Graphics & Text | Print | Product List | Glossary On
Versions: 1 2 3 4 5 6 7 8 9 10 11 12 13 14 15 16 17 18 19 20 21 22 23 24 25 26 27 28 29 30 31 32 33 34 35 36 37 38 39 40 41 42 43 44 45 46 47 48 49 50
000
ASUS45 KBOU 312307
RWRCO

WEATHER ROUNDUP FOR COLORADO
NATIONAL WEATHER SERVICE DENVER/BOULDER CO
500 PM MDT MON AUG 31 2015

NOTE: "FAIR" INDICATES FEW OR NO CLOUDS BELOW 12000 FEET WITH NO
SIGNIFICANT WEATHER AND/OR OBSTRUCTIONS TO VISIBILITY.

COZ001>005-013-030-031-010000-
...NORTHWEST COLORADO...

CITY           SKY/WX    TMP DP  RH WIND       PRES   REMARKS
CRAIG          PTSUNNY   75  51  43 NE12      30.14F
HAYDEN         NOT AVBL
MEEKER         LGT RAIN  65  47  52 S7        30.18F
MOUNT WERNER   NOT AVBL
STEAMBOAT SPGS PTSUNNY   68  45  43 NW8       30.20S
WALDEN         CLOUDY    70  37  30 SW14G20   30.28F
$$

COZ006>008-011-010000-
...WEST CENTRAL VALLEYS...

CITY           SKY/WX    TMP DP  RH WIND       PRES   REMARKS
GRAND JUNCTION MOSUNNY   81  53  37 SE5       30.06F
MONTROSE       PTSUNNY   79  49  34 N8        30.15F
EAGLE          MOSUNNY   70  46  43 CALM      30.25
RIFLE          PTSUNNY   78  53  41 N3        30.13F
DELTA          PTSUNNY   82  51  33 SE5       30.10F
NUCLA          PTSUNNY   79  37  22 SW9       30.19F
$$

COZ017>023-064>068-010000-
...SOUTHWEST COLORADO...

CITY           SKY/WX    TMP DP  RH WIND       PRES   REMARKS
DURANGO        PTSUNNY   80  34  19 W9        30.20S
CORTEZ         SUNNY     81  43  26 NW16      30.16R
PAGOSA SPRINGS PTSUNNY   75  36  23 W12G17    30.28R
TELLURIDE      PTSUNNY   67  43  41 W8        30.40S
WOLF CREEK PAS PTSUNNY   52  41  66 SW10G20   30.61S
$$

COZ009-010-012-014-032>034-037-058>063-010000-
...CENTRAL COLORADO...

CITY           SKY/WX    TMP DP  RH WIND       PRES   REMARKS
ASPEN          PTSUNNY   68  46  45 N6        30.29S
BUENA VISTA    PTSUNNY   62  54  76 CALM      30.30F
COPPER MTN     MOSUNNY   52  43  71 W9        30.59S
BERTHOUD PASS  PTSUNNY   41  30  65 NW8       30.62F HAZE
COTTONWOOD PAS LGT RAIN  59  48  67 CALM      30.43F
GUNNISON       MOSUNNY   75  41  29 S12       30.28F
KREMMLING      PTSUNNY   70  39  32 S10       30.29F
LEADVILLE      MOSUNNY   62  41  46 N8        30.41F
MONARCH PASS   CLOUDY    52  39  62 SW13G23   30.69R
SALIDA         PTSUNNY   73  46  38 N13G22    30.32R
SUNLIGHT       PTSUNNY   59  50  72 CALM      30.53S
WILKERSON PASS PTSUNNY   52  39  62 W3        30.56S
$$

COZ069>075-010000-
...SAN LUIS VALLEY/SANGRE DE CRISTO MOUNTAINS...

CITY           SKY/WX    TMP DP  RH WIND       PRES   REMARKS
ALAMOSA        PTSUNNY   75  45  34 N13G21    30.25S
LA VETA PASS   CLOUDY    55  52  88 MISG      30.46F
SAGUACHE       PTSUNNY   72  45  37 NW20G29   30.30F
$$

COZ035-036-038>040-010000-
...NORTHERN COLORADO FRONT RANGE...

CITY           SKY/WX    TMP DP  RH WIND       PRES   REMARKS
DENVER INTL AP TSTM      66  56  70 W22G29    30.12R
DMNS CITY PARK   N/A     66  54  65 W8G20     30.15R
AURORA         PTSUNNY   69  51  53 W21G31    30.16R
FRONT RANGE AP PTSUNNY   68  54  60 W24G30    30.13R
ERIE MUNI ARPT RAIN      64  58  80 SW6       30.15R
BOULDER MUN AP CLOUDY    66  55  68 SE6       30.14F
CENTENNIAL     LGT RAIN  66  56  70 W20G26    30.17R
BROOMFIELD     LGT RAIN  64  57  77 W12       30.18S
FORT COLLINS   CLOUDY    75  48  38 SW16      30.06R
LONGMONT       CLOUDY    73  54  51 S12       30.14S
$$

COZ041-046-047-076>085-087-088-010000-
...PIKES PEAK/PALMER DIVIDE AND SOUTHERN FOOTHILLS...

CITY           SKY/WX    TMP DP  RH WIND       PRES   REMARKS
COLO. SPRINGS  TSTM      65  56  72 N9        30.17F
A. F. ACADEMY  CLOUDY    65  55  69 N7        30.21F
ELLICOTT       CLOUDY   N/A N/A N/A N20G28    30.15R THUNDER
FALCON         TSTM      61  55  82 MISG      30.24F
FORT CARSON    MOSUNNY   66  57  72 W6        30.15S THUNDER
LIMON          MOSUNNY   82  45  27 N8        30.07S
MONUMENT HILL  TSTM      55  54  94 E17       30.26S
TRINIDAD       PTSUNNY   82  47  29 S7        30.09R
$$

COZ042>045-048>051-090-091-010000-
...NORTHEAST COLORADO...

CITY           SKY/WX    TMP DP  RH WIND       PRES   REMARKS
GREELEY ARPT   CLOUDY    84  46  26 SW24G31   30.06R
AKRON          PTSUNNY   87  45  23 E13G24    30.02S
BURLINGTON     SUNNY     90  49  24 E6        29.96S
WRAY           CLOUDY    93  47  20 N16G22    29.95S
STERLING       MOSUNNY   88  52  29 NE9       29.98R
HOLYOKE        MOSUNNY   91  50  24 NE10      29.97S
FORT MORGAN    MOSUNNY   84  48  28 E6        30.03R
$$

COZ086-089-092>099-010000-
...SOUTHEAST COLORADO...

CITY           SKY/WX    TMP DP  RH WIND       PRES   REMARKS
PUEBLO         PTSUNNY   82  49  31 N20G31    30.01R
LA JUNTA       CLOUDY    95  45  17 NW8       29.95S
LAMAR          MOSUNNY   94  53  25 CALM      29.87F
SPRINGFIELD      N/A     93  50  23 S22       29.94S
$$




USA.gov is the U.S. government's official web portal to all federal, state and local government web resources and services.